Location: Arran
(51.9410°N, 101.7372°W)
Time: 22:44:15
(UTC+00:00)

BlueWalker 3 - Pass Details

Date: 02 December 2022
Orbit: 498 x 517 km, 53.2° (Epoch: 08 February)

Event Time Altitude Azimuth Distance (km) Brightness Sun altitude
Rises 01:47:43 0° 282° (WNW) 2,628 6.8 -28.0°
Reaches altitude 10° 01:49:56 10° 283° (WNW) 1,737 5.6 -28.4°
Enters shadow 01:51:59 30° 286° (WNW) 946 3.8 -28.7°
